Meteo Giornale » Osservazioni meteo Germania » Buechel

ore: 05:07 - Osservazioni Meteo Buechel
Lat. 50° 10' N Lon. 7° 4' E Alt. 478 metri s.l.m.

nebbia Europe/Berlin

7 °C

Nebbia a Strati

Temp. 24 Ore

7 °C

13 °C

Ovest/Sud-Ovest

7.4 Km/h

Dew point 7 °C

Umidità 100 %

Visibilità  10 Km

Il sole sorge alle ore 08:03

Il sole tramonta alle ore 18:28

Data e Ora Cielo e Fenomeni T °C DP °C Um. % Pres. hPa Vis. km Vento km/h
Oggi h: 05:07 nebbia Nebbia a Strati 7 7 100 1023 10 O/SO 7.4
Oggi h: 04:20 sereno Sereno 7 7 100 1022 10 O 7.4
Oggi h: 03:20 sereno Sereno 8 7 93 1023 10 O/SO 9.3
Oggi h: 02:20 sereno Sereno 8 7 93 1023 10 O/SO 7.4
Oggi h: 01:20 sereno Sereno 8 7 93 1022 10 S/SO 13
Oggi h: 00:20 sereno Sereno 8 7 93 1022 10 SO 11.1
Ieri h: 23:20 sereno Sereno 9 7 87 1022 10 SO 13
Ieri h: 22:20 sereno Sereno 9 7 87 1022 10 S/SO 11.1
Ieri h: 21:20 sereno Sereno 9 7 87 1022 10 SO 13
Ieri h: 20:20 sereno Sereno 9 8 93 1021 10 S/SO 11.1
Ieri h: 19:20 sereno Sereno 9 7 87 1021 10 SO 14.8
Ieri h: 18:20 molto_nuvoloso Molto Nuvoloso 10 7 81 1020 10 SO 13
Ieri h: 17:20 molto_nuvoloso Molto Nuvoloso 10 7 81 1020 10 SO 20.3
Ieri h: 16:20 molto_nuvoloso Molto Nuvoloso 11 7 76 1019 10 SO 20.3
Ieri h: 15:20 molto_nuvoloso Molto Nuvoloso 12 7 71 1019 10 SO 20.3
Ieri h: 15:00 molto_nuvoloso Molto Nuvoloso 12 8 76 1019 10 SO 25.9
Ieri h: 14:20 molto_nuvoloso Molto Nuvoloso 13 9 76 1019 10 S/SO 25.9
Ieri h: 13:20 molto_nuvoloso Molto Nuvoloso 12 9 81 1018 10 SO 22.2
Ieri h: 12:20 molto_nuvoloso Molto Nuvoloso 13 9 76 1018 10 SO 24
Ieri h: 11:20 molto_nuvoloso Molto Nuvoloso 13 11 87 1017 10 S/SO 29.6
Ieri h: 10:20 molto_nuvoloso Molto Nuvoloso 13 11 87 1016 10 S/SO 20.3
Ieri h: 09:20 molto_nuvoloso Molto Nuvoloso 12 12 100 1015 10 S/SO 18.5
Ieri h: 08:48 molto_nuvoloso Molto Nuvoloso 12 12 100 1015 10 S/SO 22.2
Ieri h: 08:20 coperto_pioggia Pioviggine Leggera 12 12 100 1014 8 S/SO 18.5
Ieri h: 07:20 molto_nuvoloso Molto Nuvoloso 12 12 100 1013 10 S 18.5